Вернуться в каталог

SCOUT B DEB

LostUNKNOWN
NORAD 29176·DEBRIS·🇺🇸 United States

Запущен Aug 10, 1965 с Wallops Flight Facility

Loading…

Ближайшие Пролёты (ближайшие 24 часа)

TLE

УстаревшееSource: Space-Track

Эпоха: Feb 29, 2016, 20:53 UTC

1 29176U 65063AA  16060.87073067  .00004150  00000-0  31484-1 0  9997
2 29176  69.1590 241.0729 0563849  87.4786 341.6444 12.02493314475457

Отслеживайте SCOUT B DEB в реальном времени с AllMySat

Download on the App Store